owner,sensor,date,latitude,longitude,mass_concentration_of_chlorophyll_in_sea_water,qcFlag 
SCCF RECON,ioos:station:SCCF:11:1,2013-05-01T00:00:00Z,26.4679,-82.0631,4.14,1111122 
SCCF RECON,ioos:station:SCCF:11:1,2013-05-01T01:00:00Z,26.4679,-82.0631,3.71,1111122 
SCCF RECON,ioos:station:SCCF:11:1,2013-05-01T02:00:00Z,26.4679,-82.0631,4.2,1111122 
SCCF RECON,ioos:station:SCCF:11:1,2013-05-01T03:00:00Z,26.4679,-82.0631,3.8,1111122 
SCCF RECON,ioos:station:SCCF:11:1,2013-05-01T04:00:00Z,26.4679,-82.0631,4.17,1111122 
SCCF RECON,ioos:station:SCCF:11:1,2013-05-01T05:00:00Z,26.4679,-82.0631,4.18,1111122 
SCCF RECON,ioos:station:SCCF:11:1,2013-05-01T06:00:00Z,26.4679,-82.0631,23.74,1111122 
SCCF RECON,ioos:station:SCCF:11:1,2013-05-01T07:00:00Z,26.4679,-82.0631,36.31,1111122 
SCCF RECON,ioos:station:SCCF:11:1,2013-05-01T08:00:00Z,26.4679,-82.0631,15.9,1111122 
SCCF RECON,ioos:station:SCCF:11:1,2013-05-01T09:00:00Z,26.4679,-82.0631,17.95,1111122 
SCCF RECON,ioos:station:SCCF:11:1,2013-05-01T10:00:00Z,26.4679,-82.0631,21.27,1111122 
SCCF RECON,ioos:station:SCCF:11:1,2013-05-01T11:00:00Z,26.4679,-82.0631,19.6,1111122 
SCCF RECON,ioos:station:SCCF:11:1,2013-05-01T12:00:00Z,26.4679,-82.0631,19.32,1111122 
SCCF RECON,ioos:station:SCCF:11:1,2013-05-01T13:00:00Z,26.4679,-82.0631,18.23,1111122 
SCCF RECON,ioos:station:SCCF:11:1,2013-05-01T14:00:00Z,26.4679,-82.0631,3.1,1111122 
SCCF RECON,ioos:station:SCCF:11:1,2013-05-01T15:00:00Z,26.4679,-82.0631,3.78,1111122 
SCCF RECON,ioos:station:SCCF:11:1,2013-05-01T16:00:00Z,26.4679,-82.0631,24.96,1111122 
SCCF RECON,ioos:station:SCCF:11:1,2013-05-01T17:00:00Z,26.4679,-82.0631,10.77,1111122 
SCCF RECON,ioos:station:SCCF:11:1,2013-05-01T18:00:00Z,26.4679,-82.0631,13.19,1111122 
SCCF RECON,ioos:station:SCCF:11:1,2013-05-01T19:00:00Z,26.4679,-82.0631,6.81,1111122 
SCCF RECON,ioos:station:SCCF:11:1,2013-05-01T20:00:00Z,26.4679,-82.0631,14.64,1111122 
SCCF RECON,ioos:station:SCCF:11:1,2013-05-01T21:00:00Z,26.4679,-82.0631,21.49,1111122 
SCCF RECON,ioos:station:SCCF:11:1,2013-05-01T22:00:00Z,26.4679,-82.0631,64.31,1111122 
SCCF RECON,ioos:station:SCCF:11:1,2013-05-01T23:00:00Z,26.4679,-82.0631,42.9,1111122 
SCCF RECON,ioos:station:SCCF:11:1,2013-05-02T00:00:00Z,26.4679,-82.0631,14.44,1111122 
SCCF RECON,ioos:station:SCCF:11:1,2013-05-02T01:00:00Z,26.4679,-82.0631,11.2,1111122 
SCCF RECON,ioos:station:SCCF:11:1,2013-05-02T02:00:00Z,26.4679,-82.0631,19.3,1111122 
SCCF RECON,ioos:station:SCCF:11:1,2013-05-02T03:00:00Z,26.4679,-82.0631,4.24,1111122 
SCCF RECON,ioos:station:SCCF:11:1,2013-05-02T04:00:00Z,26.4679,-82.0631,4.59,1111122 
SCCF RECON,ioos:station:SCCF:11:1,2013-05-02T05:00:00Z,26.4679,-82.0631,4.55,1111122 
SCCF RECON,ioos:station:SCCF:11:1,2013-05-02T06:00:00Z,26.4679,-82.0631,4.74,1111122 
SCCF RECON,ioos:station:SCCF:11:1,2013-05-02T07:00:00Z,26.4679,-82.0631,12.19,1111122 
SCCF RECON,ioos:station:SCCF:11:1,2013-05-02T08:00:00Z,26.4679,-82.0631,22.84,1111122 
SCCF RECON,ioos:station:SCCF:11:1,2013-05-02T09:00:00Z,26.4679,-82.0631,22.96,1111122 
SCCF RECON,ioos:station:SCCF:11:1,2013-05-02T10:00:00Z,26.4679,-82.0631,38.83,1111122 
SCCF RECON,ioos:station:SCCF:11:1,2013-05-02T11:00:00Z,26.4679,-82.0631,8.86,1111122 
SCCF RECON,ioos:station:SCCF:11:1,2013-05-02T12:00:00Z,26.4679,-82.0631,24.08,1111122 
SCCF RECON,ioos:station:SCCF:11:1,2013-05-02T13:00:00Z,26.4679,-82.0631,28.75,1111122 
SCCF RECON,ioos:station:SCCF:11:1,2013-05-02T14:00:00Z,26.4679,-82.0631,25.4,1111122 
SCCF RECON,ioos:station:SCCF:11:1,2013-05-02T15:00:00Z,26.4679,-82.0631,51.24,1111122 
SCCF RECON,ioos:station:SCCF:11:1,2013-05-02T16:00:00Z,26.4679,-82.0631,46.21,1111122 
SCCF RECON,ioos:station:SCCF:11:1,2013-05-02T17:00:00Z,26.4679,-82.0631,5.71,1111122 
SCCF RECON,ioos:station:SCCF:11:1,2013-05-02T18:00:00Z,26.4679,-82.0631,14.2,1111122 
SCCF RECON,ioos:station:SCCF:11:1,2013-05-02T19:00:00Z,26.4679,-82.0631,22.54,1111122 
SCCF RECON,ioos:station:SCCF:11:1,2013-05-02T20:00:00Z,26.4679,-82.0631,22.32,1111122 
SCCF RECON,ioos:station:SCCF:11:1,2013-05-02T21:00:00Z,26.4679,-82.0631,16.71,1111122 
SCCF RECON,ioos:station:SCCF:11:1,2013-05-02T22:00:00Z,26.4679,-82.0631,18.21,1111122 
SCCF RECON,ioos:station:SCCF:11:1,2013-05-02T23:00:00Z,26.4679,-82.0631,19.29,1111122 
SCCF RECON,ioos:station:SCCF:11:1,2013-05-03T00:00:00Z,26.4679,-82.0631,11.94,1111122 
SCCF RECON,ioos:station:SCCF:11:1,2013-05-03T01:00:00Z,26.4679,-82.0631,57.76,1111122 
SCCF RECON,ioos:station:SCCF:11:1,2013-05-03T02:00:00Z,26.4679,-82.0631,5.75,1111122 
SCCF RECON,ioos:station:SCCF:11:1,2013-05-03T03:00:00Z,26.4679,-82.0631,4.54,1111122 
SCCF RECON,ioos:station:SCCF:11:1,2013-05-03T04:00:00Z,26.4679,-82.0631,9.08,1111122 
SCCF RECON,ioos:station:SCCF:11:1,2013-05-03T05:00:00Z,26.4679,-82.0631,17.09,1111122 
SCCF RECON,ioos:station:SCCF:11:1,2013-05-03T06:00:00Z,26.4679,-82.0631,-9999.0,1111122 
SCCF RECON,ioos:station:SCCF:11:1,2013-05-03T07:00:00Z,26.4679,-82.0631,-9999.0,1111122 
SCCF RECON,ioos:station:SCCF:11:1,2013-05-03T08:00:00Z,26.4679,-82.0631,-9999.0,1111122 
SCCF RECON,ioos:station:SCCF:11:1,2013-05-03T09:00:00Z,26.4679,-82.0631,-9999.0,1111122 
SCCF RECON,ioos:station:SCCF:11:1,2013-05-03T10:00:00Z,26.4679,-82.0631,-9999.0,1111122 
SCCF RECON,ioos:station:SCCF:11:1,2013-05-03T11:00:00Z,26.4679,-82.0631,-9999.0,1111122 
SCCF RECON,ioos:station:SCCF:11:1,2013-05-03T12:00:00Z,26.4679,-82.0631,-9999.0,1111122 
SCCF RECON,ioos:station:SCCF:11:1,2013-05-03T13:00:00Z,26.4679,-82.0631,-9999.0,1111122 
SCCF RECON,ioos:station:SCCF:11:1,2013-05-03T14:00:00Z,26.4679,-82.0631,-9999.0,1111122 
SCCF RECON,ioos:station:SCCF:11:1,2013-05-03T15:00:00Z,26.4679,-82.0631,-9999.0,1111122 
SCCF RECON,ioos:station:SCCF:11:1,2013-05-03T17:00:00Z,26.4679,-82.0631,1.45,1111122 
SCCF RECON,ioos:station:SCCF:11:1,2013-05-03T18:00:00Z,26.4679,-82.0631,1.55,1111122 
SCCF RECON,ioos:station:SCCF:11:1,2013-05-03T19:00:00Z,26.4679,-82.0631,1.9,1111122 
SCCF RECON,ioos:station:SCCF:11:1,2013-05-03T20:00:00Z,26.4679,-82.0631,2.22,1111122 
SCCF RECON,ioos:station:SCCF:11:1,2013-05-03T21:00:00Z,26.4679,-82.0631,2.94,1111122 
SCCF RECON,ioos:station:SCCF:11:1,2013-05-03T22:00:00Z,26.4679,-82.0631,2.06,1111122 
SCCF RECON,ioos:station:SCCF:11:1,2013-05-03T23:00:00Z,26.4679,-82.0631,2.04,1111122 
SCCF RECON,ioos:station:SCCF:11:1,2013-05-04T00:00:00Z,26.4679,-82.0631,2.43,1111122 
SCCF RECON,ioos:station:SCCF:11:1,2013-05-04T01:00:00Z,26.4679,-82.0631,3.02,1111122 
SCCF RECON,ioos:station:SCCF:11:1,2013-05-04T02:00:00Z,26.4679,-82.0631,2.37,1111122 
SCCF RECON,ioos:station:SCCF:11:1,2013-05-04T03:00:00Z,26.4679,-82.0631,2.47,1111122 
SCCF RECON,ioos:station:SCCF:11:1,2013-05-04T04:00:00Z,26.4679,-82.0631,2.21,1111122 
SCCF RECON,ioos:station:SCCF:11:1,2013-05-04T05:00:00Z,26.4679,-82.0631,2.27,1111122 
SCCF RECON,ioos:station:SCCF:11:1,2013-05-04T06:00:00Z,26.4679,-82.0631,2.3,1111122 
SCCF RECON,ioos:station:SCCF:11:1,2013-05-04T07:00:00Z,26.4679,-82.0631,2.41,1111122 
SCCF RECON,ioos:station:SCCF:11:1,2013-05-04T08:00:00Z,26.4679,-82.0631,2.36,1111122 
SCCF RECON,ioos:station:SCCF:11:1,2013-05-04T09:00:00Z,26.4679,-82.0631,2.6,1111122 
SCCF RECON,ioos:station:SCCF:11:1,2013-05-04T10:00:00Z,26.4679,-82.0631,2.17,1111122 
SCCF RECON,ioos:station:SCCF:11:1,2013-05-04T11:00:00Z,26.4679,-82.0631,2.1,1111122 
SCCF RECON,ioos:station:SCCF:11:1,2013-05-04T12:00:00Z,26.4679,-82.0631,2.3,1111122 
SCCF RECON,ioos:station:SCCF:11:1,2013-05-04T13:00:00Z,26.4679,-82.0631,2.3,1111122 
SCCF RECON,ioos:station:SCCF:11:1,2013-05-04T14:00:00Z,26.4679,-82.0631,2.23,1111122 
SCCF RECON,ioos:station:SCCF:11:1,2013-05-04T15:00:00Z,26.4679,-82.0631,1.8,1111122 
SCCF RECON,ioos:station:SCCF:11:1,2013-05-04T16:00:00Z,26.4679,-82.0631,1.9,1111122 
SCCF RECON,ioos:station:SCCF:11:1,2013-05-04T17:00:00Z,26.4679,-82.0631,1.83,1111122 
SCCF RECON,ioos:station:SCCF:11:1,2013-05-04T18:00:00Z,26.4679,-82.0631,2.17,1111122 
SCCF RECON,ioos:station:SCCF:11:1,2013-05-04T19:00:00Z,26.4679,-82.0631,2.46,1111122 
SCCF RECON,ioos:station:SCCF:11:1,2013-05-04T20:00:00Z,26.4679,-82.0631,2.87,1111122 
SCCF RECON,ioos:station:SCCF:11:1,2013-05-04T21:00:00Z,26.4679,-82.0631,3.27,1111122 
SCCF RECON,ioos:station:SCCF:11:1,2013-05-04T22:00:00Z,26.4679,-82.0631,3.36,1111122 
SCCF RECON,ioos:station:SCCF:11:1,2013-05-04T23:00:00Z,26.4679,-82.0631,3.49,1111122 
SCCF RECON,ioos:station:SCCF:11:1,2013-05-05T00:00:00Z,26.4679,-82.0631,3.02,1111122 
SCCF RECON,ioos:station:SCCF:11:1,2013-05-05T01:00:00Z,26.4679,-82.0631,3.09,1111122 
SCCF RECON,ioos:station:SCCF:11:1,2013-05-05T02:00:00Z,26.4679,-82.0631,2.82,1111122 
SCCF RECON,ioos:station:SCCF:11:1,2013-05-05T03:00:00Z,26.4679,-82.0631,2.7,1111122 
SCCF RECON,ioos:station:SCCF:11:1,2013-05-05T04:00:00Z,26.4679,-82.0631,2.38,1111122 
SCCF RECON,ioos:station:SCCF:11:1,2013-05-05T05:00:00Z,26.4679,-82.0631,2.27,1111122 
SCCF RECON,ioos:station:SCCF:11:1,2013-05-05T06:00:00Z,26.4679,-82.0631,2.23,1111122 
SCCF RECON,ioos:station:SCCF:11:1,2013-05-05T07:00:00Z,26.4679,-82.0631,2.21,1111122 
SCCF RECON,ioos:station:SCCF:11:1,2013-05-05T08:00:00Z,26.4679,-82.0631,2.06,1111122 
SCCF RECON,ioos:station:SCCF:11:1,2013-05-05T09:00:00Z,26.4679,-82.0631,2.21,1111122 
SCCF RECON,ioos:station:SCCF:11:1,2013-05-05T10:00:00Z,26.4679,-82.0631,2.47,1111122 
SCCF RECON,ioos:station:SCCF:11:1,2013-05-05T11:00:00Z,26.4679,-82.0631,2.25,1111122 
SCCF RECON,ioos:station:SCCF:11:1,2013-05-05T12:00:00Z,26.4679,-82.0631,3.34,1111122 
SCCF RECON,ioos:station:SCCF:11:1,2013-05-05T13:00:00Z,26.4679,-82.0631,2.64,1111122 
SCCF RECON,ioos:station:SCCF:11:1,2013-05-05T14:00:00Z,26.4679,-82.0631,2.97,1111122 
SCCF RECON,ioos:station:SCCF:11:1,2013-05-05T15:00:00Z,26.4679,-82.0631,2.51,1111122 
SCCF RECON,ioos:station:SCCF:11:1,2013-05-05T16:00:00Z,26.4679,-82.0631,2.35,1111122 
SCCF RECON,ioos:station:SCCF:11:1,2013-05-05T17:00:00Z,26.4679,-82.0631,2.2,1111122 
SCCF RECON,ioos:station:SCCF:11:1,2013-05-05T18:00:00Z,26.4679,-82.0631,2.12,1111122 
SCCF RECON,ioos:station:SCCF:11:1,2013-05-05T19:00:00Z,26.4679,-82.0631,2.28,1111122 
SCCF RECON,ioos:station:SCCF:11:1,2013-05-05T20:00:00Z,26.4679,-82.0631,2.49,1111122 
SCCF RECON,ioos:station:SCCF:11:1,2013-05-05T21:00:00Z,26.4679,-82.0631,2.84,1111122 
SCCF RECON,ioos:station:SCCF:11:1,2013-05-05T22:00:00Z,26.4679,-82.0631,3.1,1111122 
SCCF RECON,ioos:station:SCCF:11:1,2013-05-05T23:00:00Z,26.4679,-82.0631,3.27,1111122 
SCCF RECON,ioos:station:SCCF:11:1,2013-05-06T00:00:00Z,26.4679,-82.0631,2.76,1111122 
SCCF RECON,ioos:station:SCCF:11:1,2013-05-06T01:00:00Z,26.4679,-82.0631,2.8,1111122 
SCCF RECON,ioos:station:SCCF:11:1,2013-05-06T02:00:00Z,26.4679,-82.0631,2.83,1111122 
SCCF RECON,ioos:station:SCCF:11:1,2013-05-06T03:00:00Z,26.4679,-82.0631,2.63,1111122 
SCCF RECON,ioos:station:SCCF:11:1,2013-05-06T04:00:00Z,26.4679,-82.0631,2.63,1111122 
SCCF RECON,ioos:station:SCCF:11:1,2013-05-06T05:00:00Z,26.4679,-82.0631,2.47,1111122 
SCCF RECON,ioos:station:SCCF:11:1,2013-05-06T06:00:00Z,26.4679,-82.0631,2.13,1111122 
SCCF RECON,ioos:station:SCCF:11:1,2013-05-06T07:00:00Z,26.4679,-82.0631,2.19,1111122 
SCCF RECON,ioos:station:SCCF:11:1,2013-05-06T08:00:00Z,26.4679,-82.0631,2.06,1111122 
SCCF RECON,ioos:station:SCCF:11:1,2013-05-06T09:00:00Z,26.4679,-82.0631,2.01,1111122 
SCCF RECON,ioos:station:SCCF:11:1,2013-05-06T10:00:00Z,26.4679,-82.0631,1.94,1111122 
SCCF RECON,ioos:station:SCCF:11:1,2013-05-06T11:00:00Z,26.4679,-82.0631,1.88,1111122 
SCCF RECON,ioos:station:SCCF:11:1,2013-05-06T12:00:00Z,26.4679,-82.0631,1.66,1111122 
SCCF RECON,ioos:station:SCCF:11:1,2013-05-06T13:00:00Z,26.4679,-82.0631,1.6,1111122 
SCCF RECON,ioos:station:SCCF:11:1,2013-05-06T14:00:00Z,26.4679,-82.0631,1.68,1111122 
SCCF RECON,ioos:station:SCCF:11:1,2013-05-06T15:00:00Z,26.4679,-82.0631,1.7,1111122 
SCCF RECON,ioos:station:SCCF:11:1,2013-05-06T16:00:00Z,26.4679,-82.0631,2.37,1111122 
SCCF RECON,ioos:station:SCCF:11:1,2013-05-06T17:00:00Z,26.4679,-82.0631,1.54,1111122 
SCCF RECON,ioos:station:SCCF:11:1,2013-05-06T18:00:00Z,26.4679,-82.0631,1.83,1111122 
SCCF RECON,ioos:station:SCCF:11:1,2013-05-06T19:00:00Z,26.4679,-82.0631,1.95,1111122 
SCCF RECON,ioos:station:SCCF:11:1,2013-05-06T20:00:00Z,26.4679,-82.0631,2.08,1111122 
SCCF RECON,ioos:station:SCCF:11:1,2013-05-06T21:00:00Z,26.4679,-82.0631,2.28,1111122 
SCCF RECON,ioos:station:SCCF:11:1,2013-05-06T22:00:00Z,26.4679,-82.0631,2.57,1111122 
SCCF RECON,ioos:station:SCCF:11:1,2013-05-06T23:00:00Z,26.4679,-82.0631,2.92,1111122 
SCCF RECON,ioos:station:SCCF:11:1,2013-05-07T00:00:00Z,26.4679,-82.0631,2.43,1111122 
SCCF RECON,ioos:station:SCCF:11:1,2013-05-07T01:00:00Z,26.4679,-82.0631,2.56,1111122 
SCCF RECON,ioos:station:SCCF:11:1,2013-05-07T02:00:00Z,26.4679,-82.0631,2.74,1111122 
SCCF RECON,ioos:station:SCCF:11:1,2013-05-07T03:00:00Z,26.4679,-82.0631,2.39,1111122 
SCCF RECON,ioos:station:SCCF:11:1,2013-05-07T04:00:00Z,26.4679,-82.0631,2.15,1111122 
SCCF RECON,ioos:station:SCCF:11:1,2013-05-07T05:00:00Z,26.4679,-82.0631,2.24,1111122 
SCCF RECON,ioos:station:SCCF:11:1,2013-05-07T06:00:00Z,26.4679,-82.0631,2.07,1111122 
SCCF RECON,ioos:station:SCCF:11:1,2013-05-07T07:00:00Z,26.4679,-82.0631,1.9,1111122 
SCCF RECON,ioos:station:SCCF:11:1,2013-05-07T08:00:00Z,26.4679,-82.0631,1.76,1111122 
SCCF RECON,ioos:station:SCCF:11:1,2013-05-07T09:00:00Z,26.4679,-82.0631,1.68,1111122 
SCCF RECON,ioos:station:SCCF:11:1,2013-05-07T10:00:00Z,26.4679,-82.0631,1.68,1111122 
SCCF RECON,ioos:station:SCCF:11:1,2013-05-07T11:00:00Z,26.4679,-82.0631,1.62,1111122 
SCCF RECON,ioos:station:SCCF:11:1,2013-05-07T12:00:00Z,26.4679,-82.0631,1.69,1111122 
SCCF RECON,ioos:station:SCCF:11:1,2013-05-07T13:00:00Z,26.4679,-82.0631,1.68,1111122 
SCCF RECON,ioos:station:SCCF:11:1,2013-05-07T14:00:00Z,26.4679,-82.0631,1.61,1111122 
SCCF RECON,ioos:station:SCCF:11:1,2013-05-07T15:00:00Z,26.4679,-82.0631,1.54,1111122 
SCCF RECON,ioos:station:SCCF:11:1,2013-05-07T16:00:00Z,26.4679,-82.0631,1.73,1111122 
SCCF RECON,ioos:station:SCCF:11:1,2013-05-07T17:00:00Z,26.4679,-82.0631,1.8,1111122 
SCCF RECON,ioos:station:SCCF:11:1,2013-05-07T18:00:00Z,26.4679,-82.0631,1.69,1111122 
SCCF RECON,ioos:station:SCCF:11:1,2013-05-07T19:00:00Z,26.4679,-82.0631,1.68,1111122 
SCCF RECON,ioos:station:SCCF:11:1,2013-05-07T20:00:00Z,26.4679,-82.0631,1.87,1111122 
SCCF RECON,ioos:station:SCCF:11:1,2013-05-07T21:00:00Z,26.4679,-82.0631,2.08,1111122 
SCCF RECON,ioos:station:SCCF:11:1,2013-05-07T22:00:00Z,26.4679,-82.0631,2.34,1111122 
SCCF RECON,ioos:station:SCCF:11:1,2013-05-07T23:00:00Z,26.4679,-82.0631,2.57,1111122 
SCCF RECON,ioos:station:SCCF:11:1,2013-05-08T00:00:00Z,26.4679,-82.0631,3.02,1111122 
SCCF RECON,ioos:station:SCCF:11:1,2013-05-08T01:00:00Z,26.4679,-82.0631,4.93,1111122 
SCCF RECON,ioos:station:SCCF:11:1,2013-05-08T02:00:00Z,26.4679,-82.0631,13.29,1111122 
SCCF RECON,ioos:station:SCCF:11:1,2013-05-08T03:00:00Z,26.4679,-82.0631,4.57,1111122 
SCCF RECON,ioos:station:SCCF:11:1,2013-05-08T04:00:00Z,26.4679,-82.0631,3.58,1111122 
SCCF RECON,ioos:station:SCCF:11:1,2013-05-08T05:00:00Z,26.4679,-82.0631,3.38,1111122 
SCCF RECON,ioos:station:SCCF:11:1,2013-05-08T06:00:00Z,26.4679,-82.0631,3.03,1111122 
SCCF RECON,ioos:station:SCCF:11:1,2013-05-08T07:00:00Z,26.4679,-82.0631,1.83,1111122 
SCCF RECON,ioos:station:SCCF:11:1,2013-05-08T08:00:00Z,26.4679,-82.0631,1.49,1111122 
SCCF RECON,ioos:station:SCCF:11:1,2013-05-08T09:00:00Z,26.4679,-82.0631,1.45,1111122 
SCCF RECON,ioos:station:SCCF:11:1,2013-05-08T10:00:00Z,26.4679,-82.0631,1.4,1111122 
SCCF RECON,ioos:station:SCCF:11:1,2013-05-08T11:00:00Z,26.4679,-82.0631,1.52,1111122 
SCCF RECON,ioos:station:SCCF:11:1,2013-05-08T12:00:00Z,26.4679,-82.0631,1.32,1111122 
SCCF RECON,ioos:station:SCCF:11:1,2013-05-08T13:00:00Z,26.4679,-82.0631,1.5,1111122 
SCCF RECON,ioos:station:SCCF:11:1,2013-05-08T14:00:00Z,26.4679,-82.0631,1.55,1111122 
SCCF RECON,ioos:station:SCCF:11:1,2013-05-08T15:00:00Z,26.4679,-82.0631,1.45,1111122 
SCCF RECON,ioos:station:SCCF:11:1,2013-05-08T16:00:00Z,26.4679,-82.0631,1.54,1111122 
SCCF RECON,ioos:station:SCCF:11:1,2013-05-08T17:00:00Z,26.4679,-82.0631,1.59,1111122 
SCCF RECON,ioos:station:SCCF:11:1,2013-05-08T18:00:00Z,26.4679,-82.0631,1.5,1111122 
SCCF RECON,ioos:station:SCCF:11:1,2013-05-08T19:00:00Z,26.4679,-82.0631,1.54,1111122 
SCCF RECON,ioos:station:SCCF:11:1,2013-05-08T20:00:00Z,26.4679,-82.0631,1.72,1111122 
SCCF RECON,ioos:station:SCCF:11:1,2013-05-08T21:00:00Z,26.4679,-82.0631,1.92,1111122 
SCCF RECON,ioos:station:SCCF:11:1,2013-05-08T22:00:00Z,26.4679,-82.0631,2.17,1111122 
SCCF RECON,ioos:station:SCCF:11:1,2013-05-08T23:00:00Z,26.4679,-82.0631,2.46,1111122 
SCCF RECON,ioos:station:SCCF:11:1,2013-05-09T00:00:00Z,26.4679,-82.0631,2.96,1111122 
SCCF RECON,ioos:station:SCCF:11:1,2013-05-09T01:00:00Z,26.4679,-82.0631,2.56,1111122 
SCCF RECON,ioos:station:SCCF:11:1,2013-05-09T02:00:00Z,26.4679,-82.0631,2.3,1111122 
SCCF RECON,ioos:station:SCCF:11:1,2013-05-09T03:00:00Z,26.4679,-82.0631,2.3,1111122 
SCCF RECON,ioos:station:SCCF:11:1,2013-05-09T04:00:00Z,26.4679,-82.0631,2.64,1111122 
SCCF RECON,ioos:station:SCCF:11:1,2013-05-09T05:00:00Z,26.4679,-82.0631,2.28,1111122 
SCCF RECON,ioos:station:SCCF:11:1,2013-05-09T06:00:00Z,26.4679,-82.0631,3.43,1111122 
SCCF RECON,ioos:station:SCCF:11:1,2013-05-09T07:00:00Z,26.4679,-82.0631,1.73,1111122 
SCCF RECON,ioos:station:SCCF:11:1,2013-05-09T08:00:00Z,26.4679,-82.0631,1.74,1111122 
SCCF RECON,ioos:station:SCCF:11:1,2013-05-09T09:00:00Z,26.4679,-82.0631,1.48,1111122 
SCCF RECON,ioos:station:SCCF:11:1,2013-05-09T10:00:00Z,26.4679,-82.0631,1.44,1111122 
SCCF RECON,ioos:station:SCCF:11:1,2013-05-09T11:00:00Z,26.4679,-82.0631,1.51,1111122 
SCCF RECON,ioos:station:SCCF:11:1,2013-05-09T12:00:00Z,26.4679,-82.0631,1.44,1111122 
SCCF RECON,ioos:station:SCCF:11:1,2013-05-09T13:00:00Z,26.4679,-82.0631,1.31,1111122 
SCCF RECON,ioos:station:SCCF:11:1,2013-05-09T14:00:00Z,26.4679,-82.0631,1.58,1111122 
SCCF RECON,ioos:station:SCCF:11:1,2013-05-09T15:00:00Z,26.4679,-82.0631,1.66,1111122 
SCCF RECON,ioos:station:SCCF:11:1,2013-05-09T16:00:00Z,26.4679,-82.0631,1.61,1111122 
SCCF RECON,ioos:station:SCCF:11:1,2013-05-09T17:00:00Z,26.4679,-82.0631,1.75,1111122 
SCCF RECON,ioos:station:SCCF:11:1,2013-05-09T18:00:00Z,26.4679,-82.0631,1.63,1111122 
SCCF RECON,ioos:station:SCCF:11:1,2013-05-09T19:00:00Z,26.4679,-82.0631,1.75,1111122 
SCCF RECON,ioos:station:SCCF:11:1,2013-05-09T20:00:00Z,26.4679,-82.0631,1.69,1111122 
SCCF RECON,ioos:station:SCCF:11:1,2013-05-09T21:00:00Z,26.4679,-82.0631,1.93,1111122 
SCCF RECON,ioos:station:SCCF:11:1,2013-05-09T22:00:00Z,26.4679,-82.0631,2.08,1111122 
SCCF RECON,ioos:station:SCCF:11:1,2013-05-09T23:00:00Z,26.4679,-82.0631,2.21,1111122 
SCCF RECON,ioos:station:SCCF:11:1,2013-05-10T00:00:00Z,26.4679,-82.0631,2.47,1111122 
SCCF RECON,ioos:station:SCCF:11:1,2013-05-10T01:00:00Z,26.4679,-82.0631,2.47,1111122 
SCCF RECON,ioos:station:SCCF:11:1,2013-05-10T02:00:00Z,26.4679,-82.0631,2.06,1111122 
SCCF RECON,ioos:station:SCCF:11:1,2013-05-10T03:00:00Z,26.4679,-82.0631,2.06,1111122 
SCCF RECON,ioos:station:SCCF:11:1,2013-05-10T04:00:00Z,26.4679,-82.0631,2.78,1111122 
SCCF RECON,ioos:station:SCCF:11:1,2013-05-10T05:00:00Z,26.4679,-82.0631,3.04,1111122 
SCCF RECON,ioos:station:SCCF:11:1,2013-05-10T06:00:00Z,26.4679,-82.0631,3.39,1111122 
SCCF RECON,ioos:station:SCCF:11:1,2013-05-10T07:00:00Z,26.4679,-82.0631,3.45,1111122 
SCCF RECON,ioos:station:SCCF:11:1,2013-05-10T08:00:00Z,26.4679,-82.0631,1.89,1111122 
SCCF RECON,ioos:station:SCCF:11:1,2013-05-10T09:00:00Z,26.4679,-82.0631,1.66,1111122 
SCCF RECON,ioos:station:SCCF:11:1,2013-05-10T10:00:00Z,26.4679,-82.0631,1.45,1111122 
SCCF RECON,ioos:station:SCCF:11:1,2013-05-10T11:00:00Z,26.4679,-82.0631,1.38,1111122 
SCCF RECON,ioos:station:SCCF:11:1,2013-05-10T12:00:00Z,26.4679,-82.0631,1.21,1111122 
SCCF RECON,ioos:station:SCCF:11:1,2013-05-10T13:00:00Z,26.4679,-82.0631,1.3,1111122 
SCCF RECON,ioos:station:SCCF:11:1,2013-05-10T14:00:00Z,26.4679,-82.0631,1.37,1111122 
SCCF RECON,ioos:station:SCCF:11:1,2013-05-10T15:00:00Z,26.4679,-82.0631,2.02,1111122 
SCCF RECON,ioos:station:SCCF:11:1,2013-05-10T16:00:00Z,26.4679,-82.0631,1.9,1111122 
SCCF RECON,ioos:station:SCCF:11:1,2013-05-10T17:00:00Z,26.4679,-82.0631,1.7,1111122 
SCCF RECON,ioos:station:SCCF:11:1,2013-05-10T18:00:00Z,26.4679,-82.0631,1.97,1111122 
SCCF RECON,ioos:station:SCCF:11:1,2013-05-10T19:00:00Z,26.4679,-82.0631,1.62,1111122 
SCCF RECON,ioos:station:SCCF:11:1,2013-05-10T20:00:00Z,26.4679,-82.0631,1.75,1111122 
SCCF RECON,ioos:station:SCCF:11:1,2013-05-10T21:00:00Z,26.4679,-82.0631,1.94,1111122 
SCCF RECON,ioos:station:SCCF:11:1,2013-05-10T22:00:00Z,26.4679,-82.0631,2.1,1111122 
SCCF RECON,ioos:station:SCCF:11:1,2013-05-10T23:00:00Z,26.4679,-82.0631,2.19,1111122 
SCCF RECON,ioos:station:SCCF:11:1,2013-05-11T00:00:00Z,26.4679,-82.0631,2.47,1111122 
SCCF RECON,ioos:station:SCCF:11:1,2013-05-11T01:00:00Z,26.4679,-82.0631,2.58,1111122 
SCCF RECON,ioos:station:SCCF:11:1,2013-05-11T02:00:00Z,26.4679,-82.0631,2.35,1111122 
SCCF RECON,ioos:station:SCCF:11:1,2013-05-11T03:00:00Z,26.4679,-82.0631,1.9,1111122 
SCCF RECON,ioos:station:SCCF:11:1,2013-05-11T04:00:00Z,26.4679,-82.0631,2.44,1111122 
SCCF RECON,ioos:station:SCCF:11:1,2013-05-11T05:00:00Z,26.4679,-82.0631,2.69,1111122 
SCCF RECON,ioos:station:SCCF:11:1,2013-05-11T06:00:00Z,26.4679,-82.0631,2.54,1111122 
SCCF RECON,ioos:station:SCCF:11:1,2013-05-11T07:00:00Z,26.4679,-82.0631,2.48,1111122 
SCCF RECON,ioos:station:SCCF:11:1,2013-05-11T08:00:00Z,26.4679,-82.0631,2.35,1111122 
SCCF RECON,ioos:station:SCCF:11:1,2013-05-11T09:00:00Z,26.4679,-82.0631,2.17,1111122 
SCCF RECON,ioos:station:SCCF:11:1,2013-05-11T10:00:00Z,26.4679,-82.0631,1.93,1111122 
SCCF RECON,ioos:station:SCCF:11:1,2013-05-11T11:00:00Z,26.4679,-82.0631,1.86,1111122 
SCCF RECON,ioos:station:SCCF:11:1,2013-05-11T12:00:00Z,26.4679,-82.0631,1.84,1111122 
SCCF RECON,ioos:station:SCCF:11:1,2013-05-11T13:00:00Z,26.4679,-82.0631,1.92,1111122 
SCCF RECON,ioos:station:SCCF:11:1,2013-05-11T14:00:00Z,26.4679,-82.0631,4.41,1111122 
SCCF RECON,ioos:station:SCCF:11:1,2013-05-11T15:00:00Z,26.4679,-82.0631,8.0,1111122 
SCCF RECON,ioos:station:SCCF:11:1,2013-05-11T16:00:00Z,26.4679,-82.0631,9.6,1111122 
SCCF RECON,ioos:station:SCCF:11:1,2013-05-11T17:00:00Z,26.4679,-82.0631,2.36,1111122 
SCCF RECON,ioos:station:SCCF:11:1,2013-05-11T18:00:00Z,26.4679,-82.0631,1.69,1111122 
SCCF RECON,ioos:station:SCCF:11:1,2013-05-11T19:00:00Z,26.4679,-82.0631,1.78,1111122 
SCCF RECON,ioos:station:SCCF:11:1,2013-05-11T20:00:00Z,26.4679,-82.0631,1.72,1111122 
SCCF RECON,ioos:station:SCCF:11:1,2013-05-11T21:00:00Z,26.4679,-82.0631,1.99,1111122 
SCCF RECON,ioos:station:SCCF:11:1,2013-05-11T22:00:00Z,26.4679,-82.0631,2.27,1111122 
SCCF RECON,ioos:station:SCCF:11:1,2013-05-11T23:00:00Z,26.4679,-82.0631,2.55,1111122 
SCCF RECON,ioos:station:SCCF:11:1,2013-05-12T00:00:00Z,26.4679,-82.0631,2.97,1111122 
SCCF RECON,ioos:station:SCCF:11:1,2013-05-12T01:00:00Z,26.4679,-82.0631,3.0,1111122 
SCCF RECON,ioos:station:SCCF:11:1,2013-05-12T02:00:00Z,26.4679,-82.0631,3.07,1111122 
SCCF RECON,ioos:station:SCCF:11:1,2013-05-12T03:00:00Z,26.4679,-82.0631,2.18,1111122 
SCCF RECON,ioos:station:SCCF:11:1,2013-05-12T04:00:00Z,26.4679,-82.0631,6.09,1111122 
SCCF RECON,ioos:station:SCCF:11:1,2013-05-12T05:00:00Z,26.4679,-82.0631,5.76,1111122 
SCCF RECON,ioos:station:SCCF:11:1,2013-05-12T06:00:00Z,26.4679,-82.0631,4.73,1111122 
SCCF RECON,ioos:station:SCCF:11:1,2013-05-12T07:00:00Z,26.4679,-82.0631,3.9,1111122 
SCCF RECON,ioos:station:SCCF:11:1,2013-05-12T08:00:00Z,26.4679,-82.0631,3.66,1111122 
SCCF RECON,ioos:station:SCCF:11:1,2013-05-12T09:00:00Z,26.4679,-82.0631,3.74,1111122 
SCCF RECON,ioos:station:SCCF:11:1,2013-05-12T10:00:00Z,26.4679,-82.0631,1.55,1111122 
SCCF RECON,ioos:station:SCCF:11:1,2013-05-12T11:00:00Z,26.4679,-82.0631,1.61,1111122 
SCCF RECON,ioos:station:SCCF:11:1,2013-05-12T12:00:00Z,26.4679,-82.0631,1.42,1111122 
SCCF RECON,ioos:station:SCCF:11:1,2013-05-12T13:00:00Z,26.4679,-82.0631,1.54,1111122 